AEHF-4 (USA 288)

Last updated on Thu Nov 21 2024 00:02:44 GMT+0000 (Coordinated Universal Time)

1 43651U 18079A 24325.28194234 -.00000274 00000+0 00000+0 0 9995 2 43651 1.6484 333.6082 0050334 6.3602 113.7504 1.00267801 22540
UTC large
Height (km)
Speed (km/s)
/
Latitude / Longitude
Inclination (degrees)
Orbital Period (minutes)
Azimuth
Elevation
Range (km)
Doppler Factor

Next 0 passes for location: London (51.5072 / 0.1276)

Sorry there are no passes over London.